Weather in Krilovskaya

Russia / Krasnodar Krai     46°19′14″N   39°58′13″E
temp.,
°C
wind,
m/s
gust,
m/s
humid.,
%
clouds,
%
prec.,
mm/h
press.,
hPa
HPBL,
m
19 april, mon
mon1900:00+10ene2298100 0.3 101640
03:00+10nne1197100 0.7 101512
06:00+10ne2398100 0.2 101483
09:00+10ne1197100 0.7 101580
12:00+11ne1197100 0.6 1014102
15:00+11nnw1197100 0.8 101462
18:00+11sw1196100 0.4 101472
21:00+10sse2298100 0.4 101412
20 april, tue
tue2000:00+11ese2298100 0.0 101144
03:00+11se2399100 9.2 101084
06:00+12e61695100 4.4 1005495
09:00+14se6108969 4.6 1004482
12:00+18sw81079100 0.3 10051039
15:00+19sw8146712 0.3 10061651
18:00+14sw1016720 0.0 10061006
21:00+11wsw8157999 0.0 10101206
21 april, wed
wed2100:00+10wsw815800 0.0 1012789
03:00+9wsw513845 0.0 1014458
06:00+7ssw489733 0.0 1016240
09:00+12sw467899 0.0 1017516
12:00+14sw5669100 0.4 10181233
15:00+14wsw676943 1.2 10181153
18:00+13w357719 0.3 1019477
21:00+10wsw12865 0.3 102011
22 april, thu
thu2200:00+9w118760 0.0 102110
03:00+9wnw228081 0.1 102141
06:00+8wsw2287100 0.0 102249
09:00+12wsw2278100 0.0 1023501
12:00+15ssw326040 0.1 10231331
15:00+17wsw335533 0.4 10221549
18:00+15wnw24720 0.6 1022191
21:00+11wnw128511 1.6 102310
23 april, fri
fri2300:00+10nw22870 0.0 102311
03:00+9nw22900 0.0 102310
06:00+8nne00900 0.0 102310
09:00+13sw12700 0.0 1023468
12:00+17wsw33585 0.0 10221420
15:00+18wsw345073 0.1 10211974
18:00+16wnw236461 0.0 102183
21:00+12nne11660 0.0 102110